Time,TemperatureF,DewpointF,PressureIn,WindDirection,WindDirectionDegrees,WindSpeedMPH,WindSpeedGustMPH,Humidity,HourlyPrecipIn,Conditions,Clouds,dailyrainin,SoftwareType,DateUTC
2013-07-06 00:01:00,78.7,66.8,29.78,South,188,4.0,9.0,67,0.00,,,0.00,Wunderground v.1.15,2013-07-06 05:01:00,
2013-07-06 00:06:00,78.6,66.7,29.79,SW,219,3.0,5.0,67,0.00,,,0.00,Wunderground v.1.15,2013-07-06 05:06:00,
2013-07-06 00:11:00,78.5,66.6,29.79,SSW,202,6.0,10.0,67,0.00,,,0.00,Wunderground v.1.15,2013-07-06 05:11:00,
2013-07-06 00:17:00,78.4,66.5,29.79,SSW,205,0.0,4.0,67,0.00,,,0.00,Wunderground v.1.15,2013-07-06 05:17:00,
2013-07-06 00:23:00,78.3,66.4,29.79,WSW,246,0.0,2.0,67,0.00,,,0.00,Wunderground v.1.15,2013-07-06 05:23:00,
2013-07-06 00:29:00,78.2,66.8,29.79,South,171,1.0,5.0,68,0.00,,,0.00,Wunderground v.1.15,2013-07-06 05:29:00,
2013-07-06 00:35:00,78.1,66.7,29.79,SSW,207,4.0,7.0,68,0.00,,,0.00,Wunderground v.1.15,2013-07-06 05:35:00,
2013-07-06 00:41:00,78.0,66.6,29.79,South,185,5.0,8.0,68,0.00,,,0.00,Wunderground v.1.15,2013-07-06 05:41:00,
2013-07-06 00:46:00,77.9,66.5,29.80,SSW,197,0.0,5.0,68,0.00,,,0.00,Wunderground v.1.15,2013-07-06 05:46:00,
2013-07-06 00:52:00,77.7,66.7,29.80,SSW,197,2.0,2.0,69,0.00,,,0.00,Wunderground v.1.15,2013-07-06 05:52:00,
2013-07-06 00:57:00,77.5,66.5,29.80,South,173,1.0,6.0,69,0.00,,,0.00,Wunderground v.1.15,2013-07-06 05:57:00,
2013-07-06 01:03:00,77.3,66.7,29.80,SW,226,0.0,1.0,70,0.00,,,0.00,Wunderground v.1.15,2013-07-06 06:03:00,
2013-07-06 01:09:00,77.0,66.5,29.79,SW,215,3.0,4.0,70,0.00,,,0.00,Wunderground v.1.15,2013-07-06 06:09:00,
2013-07-06 01:14:00,76.8,66.7,29.80,SSE,164,2.0,2.0,71,0.00,,,0.00,Wunderground v.1.15,2013-07-06 06:14:00,
2013-07-06 01:20:00,76.7,66.6,29.80,SW,227,0.0,6.0,71,0.00,,,0.00,Wunderground v.1.15,2013-07-06 06:20:00,
2013-07-06 01:25:00,76.5,66.4,29.80,SSW,205,0.0,2.0,71,0.00,,,0.00,Wunderground v.1.15,2013-07-06 06:25:00,
2013-07-06 01:31:00,76.4,66.7,29.80,SSE,159,2.0,7.0,72,0.00,,,0.00,Wunderground v.1.15,2013-07-06 06:31:00,
2013-07-06 01:37:00,76.2,66.5,29.80,South,177,0.0,6.0,72,0.00,,,0.00,Wunderground v.1.15,2013-07-06 06:37:00,
2013-07-06 01:42:00,76.0,66.3,29.80,SE,144,2.0,2.0,72,0.00,,,0.00,Wunderground v.1.15,2013-07-06 06:42:00,
2013-07-06 01:48:00,75.8,66.5,29.80,SSW,211,0.0,2.0,73,0.00,,,0.00,Wunderground v.1.15,2013-07-06 06:48:00,
2013-07-06 01:54:00,75.7,66.4,29.80,SSW,200,2.0,2.0,73,0.00,,,0.00,Wunderground v.1.15,2013-07-06 06:54:00,
2013-07-06 01:59:00,75.5,66.2,29.80,South,191,4.0,4.0,73,0.00,,,0.00,Wunderground v.1.15,2013-07-06 06:59:00,
2013-07-06 02:05:00,75.3,66.0,29.80,South,169,0.0,4.0,73,0.00,,,0.00,Wunderground v.1.15,2013-07-06 07:05:00,
2013-07-06 02:10:00,75.2,66.3,29.80,South,185,2.0,5.0,74,0.00,,,0.00,Wunderground v.1.15,2013-07-06 07:10:00,
2013-07-06 02:15:00,75.1,66.2,29.81,South,182,3.0,3.0,74,0.00,,,0.00,Wunderground v.1.15,2013-07-06 07:15:00,
2013-07-06 02:20:00,74.9,66.1,29.80,South,181,0.0,3.0,74,0.00,,,0.00,Wunderground v.1.15,2013-07-06 07:20:00,
2013-07-06 02:25:00,74.8,66.0,29.80,South,180,0.0,2.0,74,0.00,,,0.00,Wunderground v.1.15,2013-07-06 07:25:00,
2013-07-06 02:30:00,74.6,66.1,29.80,South,180,0.0,4.0,75,0.00,,,0.00,Wunderground v.1.15,2013-07-06 07:30:00,
2013-07-06 02:35:00,74.4,66.0,29.81,South,180,0.0,5.0,75,0.00,,,0.00,Wunderground v.1.15,2013-07-06 07:35:00,
2013-07-06 02:40:00,74.3,66.2,29.80,South,178,0.0,6.0,76,0.00,,,0.00,Wunderground v.1.15,2013-07-06 07:40:00,
2013-07-06 02:45:00,74.1,66.0,29.80,South,178,0.0,1.0,76,0.00,,,0.00,Wunderground v.1.15,2013-07-06 07:45:00,
2013-07-06 02:51:00,73.9,66.2,29.80,South,178,0.0,4.0,77,0.00,,,0.00,Wunderground v.1.15,2013-07-06 07:51:00,
2013-07-06 02:56:00,73.8,66.1,29.80,South,179,0.0,4.0,77,0.00,,,0.00,Wunderground v.1.15,2013-07-06 07:56:00,
2013-07-06 03:01:00,73.5,65.8,29.80,South,179,0.0,5.0,77,0.00,,,0.00,Wunderground v.1.15,2013-07-06 08:01:00,
2013-07-06 03:06:00,73.3,66.0,29.80,South,179,1.0,4.0,78,0.00,,,0.00,Wunderground v.1.15,2013-07-06 08:06:00,
2013-07-06 03:11:00,73.2,65.9,29.80,South,178,0.0,6.0,78,0.00,,,0.00,Wunderground v.1.15,2013-07-06 08:11:00,
2013-07-06 03:16:00,73.1,65.8,29.80,South,176,0.0,5.0,78,0.00,,,0.00,Wunderground v.1.15,2013-07-06 08:16:00,
2013-07-06 03:21:00,73.1,65.8,29.80,South,176,0.0,5.0,78,0.00,,,0.00,Wunderground v.1.15,2013-07-06 08:21:00,
2013-07-06 03:26:00,72.9,65.6,29.80,SSE,167,0.0,6.0,78,0.00,,,0.00,Wunderground v.1.15,2013-07-06 08:26:00,
2013-07-06 03:31:00,72.9,65.6,29.80,South,182,1.0,6.0,78,0.00,,,0.00,Wunderground v.1.15,2013-07-06 08:31:00,
2013-07-06 03:36:00,72.9,65.6,29.80,South,169,4.0,5.0,78,0.00,,,0.00,Wunderground v.1.15,2013-07-06 08:36:00,
2013-07-06 03:41:00,73.0,65.7,29.80,SE,138,7.0,7.0,78,0.00,,,0.00,Wunderground v.1.15,2013-07-06 08:41:00,
2013-07-06 03:47:00,73.0,65.4,29.80,SSE,155,2.0,4.0,77,0.00,,,0.00,Wunderground v.1.15,2013-07-06 08:47:00,
2013-07-06 03:52:00,73.0,65.4,29.80,South,178,6.0,6.0,77,0.00,,,0.00,Wunderground v.1.15,2013-07-06 08:52:00,
2013-07-06 03:57:00,73.1,65.5,29.80,South,182,0.0,3.0,77,0.00,,,0.00,Wunderground v.1.15,2013-07-06 08:57:00,
2013-07-06 04:02:00,73.1,65.5,29.80,SSE,161,4.0,6.0,77,0.00,,,0.00,Wunderground v.1.15,2013-07-06 09:02:00,
2013-07-06 04:07:00,73.1,65.5,29.80,SSE,165,0.0,6.0,77,0.00,,,0.00,Wunderground v.1.15,2013-07-06 09:07:00,
2013-07-06 04:12:00,73.1,65.5,29.80,SSE,165,7.0,7.0,77,0.00,,,0.00,Wunderground v.1.15,2013-07-06 09:12:00,
2013-07-06 04:17:00,73.2,65.6,29.80,South,173,1.0,7.0,77,0.00,,,0.00,Wunderground v.1.15,2013-07-06 09:17:00,
2013-07-06 04:22:00,73.1,65.5,29.80,SSW,199,2.0,2.0,77,0.00,,,0.00,Wunderground v.1.15,2013-07-06 09:22:00,
2013-07-06 04:27:00,73.1,65.5,29.80,SSE,159,0.0,5.0,77,0.00,,,0.00,Wunderground v.1.15,2013-07-06 09:27:00,
2013-07-06 04:33:00,73.1,65.5,29.80,South,173,1.0,4.0,77,0.00,,,0.00,Wunderground v.1.15,2013-07-06 09:33:00,
2013-07-06 04:38:00,73.1,65.1,29.80,South,177,0.0,5.0,76,0.00,,,0.00,Wunderground v.1.15,2013-07-06 09:38:00,
2013-07-06 04:43:00,73.3,65.3,29.79,SSW,199,0.0,2.0,76,0.00,,,0.00,Wunderground v.1.15,2013-07-06 09:43:00,
2013-07-06 04:48:00,73.3,65.3,29.79,SSW,199,0.0,2.0,76,0.00,,,0.00,Wunderground v.1.15,2013-07-06 09:48:00,
2013-07-06 04:53:00,73.2,65.2,29.80,SSW,196,2.0,3.0,76,0.00,,,0.00,Wunderground v.1.15,2013-07-06 09:53:00,
2013-07-06 04:58:00,73.1,65.1,29.80,South,175,2.0,6.0,76,0.00,,,0.00,Wunderground v.1.15,2013-07-06 09:58:00,
2013-07-06 05:03:00,73.2,65.2,29.80,South,175,0.0,2.0,76,0.00,,,0.00,Wunderground v.1.15,2013-07-06 10:03:00,
2013-07-06 05:08:00,73.2,65.2,29.80,South,170,7.0,7.0,76,0.00,,,0.00,Wunderground v.1.15,2013-07-06 10:08:00,
2013-07-06 05:13:00,73.3,64.9,29.80,South,175,0.0,4.0,75,0.00,,,0.00,Wunderground v.1.15,2013-07-06 10:13:00,
2013-07-06 05:18:00,73.6,64.8,29.80,ESE,113,5.0,9.0,74,0.00,,,0.00,Wunderground v.1.15,2013-07-06 10:18:00,
2013-07-06 05:23:00,73.8,64.6,29.80,South,188,3.0,6.0,73,0.00,,,0.00,Wunderground v.1.15,2013-07-06 10:23:00,
2013-07-06 05:28:00,74.0,64.8,29.79,SSE,155,5.0,9.0,73,0.00,,,0.00,Wunderground v.1.15,2013-07-06 10:28:00,
2013-07-06 05:34:00,74.2,64.6,29.79,SW,222,2.0,9.0,72,0.00,,,0.00,Wunderground v.1.15,2013-07-06 10:34:00,
2013-07-06 05:39:00,74.2,64.6,29.80,South,186,6.0,9.0,72,0.00,,,0.00,Wunderground v.1.15,2013-07-06 10:39:00,
2013-07-06 05:44:00,74.3,64.7,29.80,South,171,0.0,8.0,72,0.00,,,0.00,Wunderground v.1.15,2013-07-06 10:44:00,
2013-07-06 05:49:00,74.4,64.8,29.80,SSW,205,5.0,8.0,72,0.00,,,0.00,Wunderground v.1.15,2013-07-06 10:49:00,
2013-07-06 05:54:00,74.5,64.5,29.80,SSE,167,6.0,6.0,71,0.00,,,0.00,Wunderground v.1.15,2013-07-06 10:54:00,
2013-07-06 05:59:00,74.6,64.6,29.80,SSE,168,5.0,8.0,71,0.00,,,0.00,Wunderground v.1.15,2013-07-06 10:59:00,
2013-07-06 06:05:00,74.6,64.6,29.80,SSE,155,5.0,7.0,71,0.00,,,0.00,Wunderground v.1.15,2013-07-06 11:05:00,
2013-07-06 06:10:00,74.6,64.6,29.80,SSW,210,0.0,7.0,71,0.00,,,0.00,Wunderground v.1.15,2013-07-06 11:10:00,
2013-07-06 06:15:00,74.6,64.6,29.80,South,190,4.0,8.0,71,0.00,,,0.00,Wunderground v.1.15,2013-07-06 11:15:00,
2013-07-06 06:20:00,74.6,64.6,29.80,SSW,193,5.0,8.0,71,0.00,,,0.00,Wunderground v.1.15,2013-07-06 11:20:00,
2013-07-06 06:25:00,74.6,64.6,29.80,South,180,4.0,8.0,71,0.00,,,0.00,Wunderground v.1.15,2013-07-06 11:25:00,
2013-07-06 06:30:00,74.6,64.6,29.81,SSW,192,4.0,9.0,71,0.00,,,0.00,Wunderground v.1.15,2013-07-06 11:30:00,
2013-07-06 06:35:00,74.7,64.7,29.81,SSW,198,8.0,10.0,71,0.00,,,0.00,Wunderground v.1.15,2013-07-06 11:35:00,
2013-07-06 06:40:00,74.7,64.7,29.80,SSW,207,4.0,10.0,71,0.00,,,0.00,Wunderground v.1.15,2013-07-06 11:40:00,
2013-07-06 06:45:00,74.8,64.8,29.80,SSW,213,1.0,7.0,71,0.00,,,0.00,Wunderground v.1.15,2013-07-06 11:45:00,
2013-07-06 06:50:00,74.8,64.8,29.80,SW,216,5.0,8.0,71,0.00,,,0.00,Wunderground v.1.15,2013-07-06 11:50:00,
2013-07-06 06:56:00,74.8,64.8,29.80,SW,229,5.0,6.0,71,0.00,,,0.00,Wunderground v.1.15,2013-07-06 11:56:00,
2013-07-06 07:01:00,74.7,64.7,29.80,SSW,208,5.0,12.0,71,0.00,,,0.00,Wunderground v.1.15,2013-07-06 12:01:00,
2013-07-06 07:06:00,74.8,64.8,29.80,SW,216,4.0,6.0,71,0.00,,,0.00,Wunderground v.1.15,2013-07-06 12:06:00,
2013-07-06 07:11:00,74.9,64.9,29.80,SSW,202,3.0,6.0,71,0.00,,,0.00,Wunderground v.1.15,2013-07-06 12:11:00,
2013-07-06 07:16:00,75.0,65.0,29.81,SSW,199,3.0,6.0,71,0.00,,,0.00,Wunderground v.1.15,2013-07-06 12:16:00,
2013-07-06 07:21:00,75.2,65.1,29.81,SW,220,3.0,13.0,71,0.00,,,0.00,Wunderground v.1.15,2013-07-06 12:21:00,
2013-07-06 07:27:00,75.3,65.2,29.81,SW,228,3.0,9.0,71,0.00,,,0.00,Wunderground v.1.15,2013-07-06 12:27:00,
2013-07-06 07:32:00,75.5,65.4,29.81,SSW,202,4.0,9.0,71,0.00,,,0.00,Wunderground v.1.15,2013-07-06 12:32:00,
2013-07-06 07:37:00,75.6,65.5,29.81,West,260,3.0,8.0,71,0.00,,,0.00,Wunderground v.1.15,2013-07-06 12:37:00,
2013-07-06 07:42:00,75.6,65.5,29.81,SSW,211,4.0,4.0,71,0.00,,,0.00,Wunderground v.1.15,2013-07-06 12:42:00,
2013-07-06 07:47:00,75.6,65.5,29.81,SSW,203,5.0,9.0,71,0.00,,,0.00,Wunderground v.1.15,2013-07-06 12:47:00,
2013-07-06 07:53:00,75.5,65.4,29.81,South,181,7.0,7.0,71,0.00,,,0.00,Wunderground v.1.15,2013-07-06 12:53:00,
2013-07-06 07:58:00,75.5,65.8,29.81,WSW,238,5.0,7.0,72,0.00,,,0.00,Wunderground v.1.15,2013-07-06 12:58:00,
2013-07-06 08:03:00,75.4,65.7,29.81,West,262,4.0,4.0,72,0.00,,,0.00,Wunderground v.1.15,2013-07-06 13:03:00,
2013-07-06 08:08:00,75.3,65.6,29.82,SSW,193,3.0,7.0,72,0.00,,,0.00,Wunderground v.1.15,2013-07-06 13:08:00,
2013-07-06 08:13:00,75.2,65.6,29.81,SW,216,4.0,5.0,72,0.00,,,0.00,Wunderground v.1.15,2013-07-06 13:13:00,
2013-07-06 08:18:00,75.2,65.9,29.82,WSW,238,4.0,10.0,73,0.00,,,0.00,Wunderground v.1.15,2013-07-06 13:18:00,
2013-07-06 08:24:00,75.4,65.7,29.82,SW,215,2.0,8.0,72,0.00,,,0.00,Wunderground v.1.15,2013-07-06 13:24:00,
2013-07-06 08:29:00,75.5,65.8,29.82,SSE,166,0.0,9.0,72,0.00,,,0.00,Wunderground v.1.15,2013-07-06 13:29:00,
2013-07-06 08:34:00,75.6,65.9,29.82,South,186,5.0,7.0,72,0.00,,,0.00,Wunderground v.1.15,2013-07-06 13:34:00,
2013-07-06 08:39:00,76.0,66.3,29.82,WSW,237,2.0,10.0,72,0.00,,,0.00,Wunderground v.1.15,2013-07-06 13:39:00,
2013-07-06 08:44:00,76.5,66.0,29.81,WSW,257,2.0,10.0,70,0.00,,,0.00,Wunderground v.1.15,2013-07-06 13:44:00,
2013-07-06 08:49:00,76.7,66.2,29.82,SSW,202,4.0,10.0,70,0.00,,,0.00,Wunderground v.1.15,2013-07-06 13:49:00,
2013-07-06 08:54:00,76.9,66.8,29.82,South,190,5.0,6.0,71,0.00,,,0.00,Wunderground v.1.15,2013-07-06 13:54:00,
2013-07-06 08:59:00,77.0,66.5,29.81,SSW,195,3.0,11.0,70,0.00,,,0.00,Wunderground v.1.15,2013-07-06 13:59:00,
2013-07-06 09:04:00,77.0,66.9,29.81,South,182,3.0,5.0,71,0.00,,,0.00,Wunderground v.1.15,2013-07-06 14:04:00,
2013-07-06 09:09:00,76.9,66.4,29.81,SSW,196,1.0,10.0,70,0.00,,,0.00,Wunderground v.1.15,2013-07-06 14:09:00,
2013-07-06 09:14:00,76.8,66.7,29.82,SW,230,1.0,7.0,71,0.00,,,0.00,Wunderground v.1.15,2013-07-06 14:14:00,
2013-07-06 09:19:00,76.7,67.4,29.82,SW,225,5.0,7.0,73,0.00,,,0.00,Wunderground v.1.15,2013-07-06 14:19:00,
2013-07-06 09:25:00,76.6,66.9,29.82,SW,234,5.0,6.0,72,0.00,,,0.00,Wunderground v.1.15,2013-07-06 14:25:00,
2013-07-06 09:30:00,76.5,66.8,29.82,SSW,211,2.0,9.0,72,0.00,,,0.00,Wunderground v.1.15,2013-07-06 14:30:00,
2013-07-06 09:35:00,76.5,66.8,29.82,South,180,2.0,6.0,72,0.00,,,0.00,Wunderground v.1.15,2013-07-06 14:35:00,
2013-07-06 09:40:00,76.4,66.7,29.82,SSE,167,4.0,7.0,72,0.00,,,0.00,Wunderground v.1.15,2013-07-06 14:40:00,
2013-07-06 09:45:00,76.4,67.1,29.82,SSE,167,5.0,5.0,73,0.00,,,0.00,Wunderground v.1.15,2013-07-06 14:45:00,
2013-07-06 09:50:00,76.5,67.2,29.82,SW,223,0.0,5.0,73,0.00,,,0.00,Wunderground v.1.15,2013-07-06 14:50:00,
2013-07-06 09:55:00,76.7,67.0,29.82,SW,215,1.0,5.0,72,0.00,,,0.00,Wunderground v.1.15,2013-07-06 14:55:00,
2013-07-06 10:00:00,76.9,67.2,29.82,WSW,243,0.0,5.0,72,0.00,,,0.00,Wunderground v.1.15,2013-07-06 15:00:00,
2013-07-06 10:06:00,77.3,67.6,29.81,South,190,2.0,4.0,72,0.00,,,0.00,Wunderground v.1.15,2013-07-06 15:06:00,
2013-07-06 10:11:00,77.7,68.0,29.81,South,190,2.0,4.0,72,0.00,,,0.00,Wunderground v.1.15,2013-07-06 15:11:00,
2013-07-06 10:16:00,77.8,67.2,29.81,South,186,3.0,8.0,70,0.00,,,0.00,Wunderground v.1.15,2013-07-06 15:16:00,
2013-07-06 10:21:00,77.8,67.2,29.81,South,186,6.0,8.0,70,0.00,,,0.00,Wunderground v.1.15,2013-07-06 15:21:00,
2013-07-06 10:26:00,77.8,67.2,29.81,SSW,205,2.0,8.0,70,0.00,,,0.00,Wunderground v.1.15,2013-07-06 15:26:00,
2013-07-06 10:31:00,77.9,67.3,29.81,SW,220,4.0,8.0,70,0.00,,,0.00,Wunderground v.1.15,2013-07-06 15:31:00,
2013-07-06 10:36:00,78.0,67.4,29.81,SSW,212,0.0,4.0,70,0.00,,,0.00,Wunderground v.1.15,2013-07-06 15:36:00,
2013-07-06 10:42:00,78.2,68.0,29.81,South,175,1.0,6.0,71,0.00,,,0.00,Wunderground v.1.15,2013-07-06 15:42:00,
2013-07-06 10:47:00,78.1,67.9,29.81,SW,230,4.0,8.0,71,0.00,,,0.00,Wunderground v.1.15,2013-07-06 15:47:00,
2013-07-06 10:52:00,77.9,67.3,29.81,SSW,193,7.0,10.0,70,0.00,,,0.00,Wunderground v.1.15,2013-07-06 15:52:00,
2013-07-06 10:57:00,77.9,67.3,29.81,SSE,153,5.0,8.0,70,0.00,,,0.00,Wunderground v.1.15,2013-07-06 15:57:00,
2013-07-06 11:02:00,78.1,67.5,29.81,SSW,205,1.0,4.0,70,0.00,,,0.00,Wunderground v.1.15,2013-07-06 16:02:00,
2013-07-06 11:08:00,78.4,67.8,29.81,SW,214,0.0,7.0,70,0.00,,,0.00,Wunderground v.1.15,2013-07-06 16:08:00,
2013-07-06 11:13:00,78.8,68.6,29.81,ESE,123,9.0,9.0,71,0.00,,,0.00,Wunderground v.1.15,2013-07-06 16:13:00,
2013-07-06 11:18:00,79.0,67.5,29.82,SSE,164,4.0,10.0,68,0.00,,,0.00,Wunderground v.1.15,2013-07-06 16:18:00,
2013-07-06 11:23:00,79.2,68.1,29.82,SSE,165,2.0,4.0,69,0.00,,,0.00,Wunderground v.1.15,2013-07-06 16:23:00,
2013-07-06 11:28:00,79.4,67.9,29.82,SW,234,6.0,12.0,68,0.00,,,0.00,Wunderground v.1.15,2013-07-06 16:28:00,
2013-07-06 11:33:00,79.4,67.9,29.82,South,179,2.0,6.0,68,0.00,,,0.00,Wunderground v.1.15,2013-07-06 16:33:00,
2013-07-06 11:39:00,79.4,68.3,29.82,South,174,5.0,8.0,69,0.00,,,0.00,Wunderground v.1.15,2013-07-06 16:39:00,
2013-07-06 11:44:00,79.3,67.8,29.82,SW,214,0.0,6.0,68,0.00,,,0.00,Wunderground v.1.15,2013-07-06 16:44:00,
2013-07-06 11:50:00,79.3,68.2,29.81,SSW,200,4.0,6.0,69,0.00,,,0.00,Wunderground v.1.15,2013-07-06 16:50:00,
2013-07-06 11:55:00,79.2,68.6,29.81,SSE,160,4.0,6.0,70,0.00,,,0.00,Wunderground v.1.15,2013-07-06 16:55:00,
2013-07-06 12:01:00,79.2,68.6,29.81,SSE,148,2.0,10.0,70,0.00,,,0.00,Wunderground v.1.15,2013-07-06 17:01:00,
2013-07-06 12:07:00,79.1,68.5,29.81,SSE,152,2.0,7.0,70,0.00,,,0.00,Wunderground v.1.15,2013-07-06 17:07:00,
2013-07-06 12:12:00,78.9,68.7,29.81,South,183,0.0,4.0,71,0.00,,,0.00,Wunderground v.1.15,2013-07-06 17:12:00,
2013-07-06 12:17:00,78.8,68.2,29.81,SSE,150,6.0,11.0,70,0.00,,,0.00,Wunderground v.1.15,2013-07-06 17:17:00,
2013-07-06 12:23:00,78.7,68.1,29.81,South,176,6.0,6.0,70,0.00,,,0.00,Wunderground v.1.15,2013-07-06 17:23:00,
2013-07-06 12:29:00,78.7,68.5,29.81,South,186,5.0,9.0,71,0.00,,,0.00,Wunderground v.1.15,2013-07-06 17:29:00,
2013-07-06 12:35:00,78.8,68.6,29.80,SSW,207,5.0,5.0,71,0.00,,,0.00,Wunderground v.1.15,2013-07-06 17:35:00,
2013-07-06 12:40:00,78.8,68.6,29.80,SSE,163,6.0,8.0,71,0.00,,,0.00,Wunderground v.1.15,2013-07-06 17:40:00,
2013-07-06 12:45:00,78.9,68.7,29.80,SSE,155,0.0,7.0,71,0.00,,,0.00,Wunderground v.1.15,2013-07-06 17:45:00,
2013-07-06 12:50:00,79.1,69.7,29.80,South,189,3.0,7.0,73,0.00,,,0.00,Wunderground v.1.15,2013-07-06 17:50:00,
2013-07-06 12:55:00,79.3,69.9,29.80,South,178,0.0,4.0,73,0.00,,,0.00,Wunderground v.1.15,2013-07-06 17:55:00,
2013-07-06 13:00:00,79.8,70.0,29.80,SSE,166,2.0,6.0,72,0.00,,,0.00,Wunderground v.1.15,2013-07-06 18:00:00,
2013-07-06 13:06:00,80.3,70.4,29.79,SE,145,10.0,10.0,72,0.00,,,0.00,Wunderground v.1.15,2013-07-06 18:06:00,
2013-07-06 13:11:00,80.7,70.0,29.79,SSW,205,0.0,10.0,70,0.00,,,0.00,Wunderground v.1.15,2013-07-06 18:11:00,
2013-07-06 13:16:00,81.2,70.1,29.80,South,169,0.0,8.0,69,0.00,,,0.00,Wunderground v.1.15,2013-07-06 18:16:00,
2013-07-06 13:22:00,81.5,70.3,29.80,WSW,255,0.0,12.0,69,0.00,,,0.00,Wunderground v.1.15,2013-07-06 18:22:00,
2013-07-06 13:27:00,81.7,70.5,29.79,SSW,192,0.0,6.0,69,0.00,,,0.00,Wunderground v.1.15,2013-07-06 18:27:00,
2013-07-06 13:32:00,81.8,70.2,29.79,SSE,161,4.0,4.0,68,0.00,,,0.00,Wunderground v.1.15,2013-07-06 18:32:00,
2013-07-06 13:37:00,81.9,70.7,29.78,South,173,1.0,6.0,69,0.00,,,0.00,Wunderground v.1.15,2013-07-06 18:37:00,
2013-07-06 13:42:00,81.8,70.6,29.78,South,169,8.0,8.0,69,0.00,,,0.00,Wunderground v.1.15,2013-07-06 18:42:00,
2013-07-06 13:48:00,81.8,70.2,29.78,SSE,167,9.0,9.0,68,0.00,,,0.00,Wunderground v.1.15,2013-07-06 18:48:00,
2013-07-06 13:53:00,82.0,70.8,29.78,SSE,150,2.0,4.0,69,0.00,,,0.00,Wunderground v.1.15,2013-07-06 18:53:00,
2013-07-06 13:58:00,82.1,71.8,29.78,SSE,161,5.0,7.0,71,0.00,,,0.00,Wunderground v.1.15,2013-07-06 18:58:00,
2013-07-06 14:04:00,82.3,71.1,29.78,SE,138,0.0,5.0,69,0.00,,,0.00,Wunderground v.1.15,2013-07-06 19:04:00,
2013-07-06 14:09:00,82.6,72.2,29.78,SE,138,0.0,5.0,71,0.00,,,0.00,Wunderground v.1.15,2013-07-06 19:09:00,
2013-07-06 14:14:00,82.7,72.3,29.78,SSE,155,2.0,2.0,71,0.00,,,0.00,Wunderground v.1.15,2013-07-06 19:14:00,
2013-07-06 14:20:00,82.9,73.4,29.78,SSE,155,0.0,2.0,73,0.00,,,0.00,Wunderground v.1.15,2013-07-06 19:20:00,
2013-07-06 14:26:00,83.0,72.2,29.78,SSE,156,0.0,2.0,70,0.00,,,0.00,Wunderground v.1.15,2013-07-06 19:26:00,
2013-07-06 14:33:00,83.2,72.4,29.78,SSE,155,0.0,1.0,70,0.00,,,0.00,Wunderground v.1.15,2013-07-06 19:33:00,
2013-07-06 14:38:00,83.5,72.7,29.78,SSE,155,0.0,2.0,70,0.00,,,0.00,Wunderground v.1.15,2013-07-06 19:38:00,
2013-07-06 14:43:00,83.9,73.5,29.77,SSE,155,0.0,0.0,71,0.00,,,0.00,Wunderground v.1.15,2013-07-06 19:43:00,
2013-07-06 14:48:00,84.5,73.6,29.78,SSE,154,0.0,0.0,70,0.00,,,0.00,Wunderground v.1.15,2013-07-06 19:48:00,
2013-07-06 14:53:00,85.2,74.3,29.78,SSE,154,0.0,0.0,70,0.00,,,0.00,Wunderground v.1.15,2013-07-06 19:53:00,
2013-07-06 14:59:00,85.6,74.3,29.77,SSE,154,0.0,0.0,69,0.00,,,0.00,Wunderground v.1.15,2013-07-06 19:59:00,
2013-07-06 15:04:00,86.4,75.9,29.78,SSE,154,0.0,0.0,71,0.00,,,0.00,Wunderground v.1.15,2013-07-06 20:04:00,
2013-07-06 15:10:00,86.9,75.1,29.78,East,98,2.0,5.0,68,0.00,,,0.00,Wunderground v.1.15,2013-07-06 20:10:00,
2013-07-06 15:15:00,87.1,74.8,29.78,ESE,111,0.0,2.0,67,0.00,,,0.00,Wunderground v.1.15,2013-07-06 20:15:00,
2013-07-06 15:20:00,87.0,75.6,29.78,ESE,111,0.0,2.0,69,0.00,,,0.00,Wunderground v.1.15,2013-07-06 20:20:00,
2013-07-06 15:26:00,86.8,76.7,29.78,ESE,111,0.0,0.0,72,0.00,,,0.00,Wunderground v.1.15,2013-07-06 20:26:00,
2013-07-06 15:31:00,86.8,76.3,29.78,ESE,111,0.0,0.0,71,0.00,,,0.00,Wunderground v.1.15,2013-07-06 20:31:00,
2013-07-06 15:37:00,86.9,76.4,29.77,ESE,111,0.0,0.0,71,0.00,,,0.00,Wunderground v.1.15,2013-07-06 20:37:00,
2013-07-06 15:42:00,87.0,75.2,29.77,ESE,111,0.0,1.0,68,0.00,,,0.00,Wunderground v.1.15,2013-07-06 20:42:00,
2013-07-06 15:47:00,87.0,76.0,29.77,ESE,111,0.0,0.0,70,0.00,,,0.00,Wunderground v.1.15,2013-07-06 20:47:00,
2013-07-06 15:53:00,86.8,75.0,29.77,SE,132,5.0,5.0,68,0.00,,,0.00,Wunderground v.1.15,2013-07-06 20:53:00,
2013-07-06 15:58:00,86.6,75.2,29.77,SSE,165,0.0,6.0,69,0.00,,,0.00,Wunderground v.1.15,2013-07-06 20:58:00,
2013-07-06 16:03:00,86.5,74.7,29.78,SSE,165,0.0,0.0,68,0.00,,,0.00,Wunderground v.1.15,2013-07-06 21:03:00,
2013-07-06 16:08:00,86.3,74.5,29.78,SSE,165,0.0,4.0,68,0.00,,,0.00,Wunderground v.1.15,2013-07-06 21:08:00,
2013-07-06 16:14:00,86.3,73.6,29.78,SSE,165,0.0,4.0,66,0.00,,,0.00,Wunderground v.1.15,2013-07-06 21:14:00,
2013-07-06 16:19:00,86.1,75.2,29.78,SSE,165,0.0,4.0,70,0.00,,,0.00,Wunderground v.1.15,2013-07-06 21:19:00,
2013-07-06 16:24:00,86.1,76.8,29.78,SSE,165,0.0,0.0,74,0.00,,,0.00,Wunderground v.1.15,2013-07-06 21:24:00,
2013-07-06 16:29:00,85.8,76.5,29.78,SSE,165,0.0,0.0,74,0.00,,,0.00,Wunderground v.1.15,2013-07-06 21:29:00,
2013-07-06 16:34:00,85.4,76.2,29.77,SSE,165,0.0,0.0,74,0.00,,,0.00,Wunderground v.1.15,2013-07-06 21:34:00,
2013-07-06 16:39:00,85.0,75.8,29.78,SSE,165,0.0,0.0,74,0.00,,,0.00,Wunderground v.1.15,2013-07-06 21:39:00,
2013-07-06 16:46:00,84.5,76.1,29.77,SSE,165,0.0,0.0,76,0.00,,,0.00,Wunderground v.1.15,2013-07-06 21:46:00,
2013-07-06 16:51:00,84.3,77.5,29.77,SSE,165,0.0,0.0,80,0.00,,,0.00,Wunderground v.1.15,2013-07-06 21:51:00,
2013-07-06 16:57:00,84.1,77.6,29.77,SSE,165,0.0,0.0,81,0.00,,,0.00,Wunderground v.1.15,2013-07-06 21:57:00,
2013-07-06 17:02:00,83.9,77.8,29.77,SSE,165,0.0,0.0,82,0.00,,,0.00,Wunderground v.1.15,2013-07-06 22:02:00,
2013-07-06 17:08:00,83.8,78.1,29.77,SSE,165,0.0,0.0,83,0.00,,,0.00,Wunderground v.1.15,2013-07-06 22:08:00,
2013-07-06 17:13:00,83.7,78.7,29.77,SSE,165,0.0,0.0,85,0.00,,,0.00,Wunderground v.1.15,2013-07-06 22:13:00,
2013-07-06 17:18:00,83.5,78.5,29.77,SSE,165,0.0,0.0,85,0.00,,,0.00,Wunderground v.1.15,2013-07-06 22:18:00,
2013-07-06 17:24:00,83.3,78.7,29.77,SSE,165,0.0,0.0,86,0.00,,,0.00,Wunderground v.1.15,2013-07-06 22:24:00,
2013-07-06 17:30:00,83.1,78.5,29.76,SSE,165,0.0,0.0,86,0.00,,,0.00,Wunderground v.1.15,2013-07-06 22:30:00,
2013-07-06 17:35:00,82.9,78.6,29.76,SSE,165,0.0,0.0,87,0.00,,,0.00,Wunderground v.1.15,2013-07-06 22:35:00,
2013-07-06 17:40:00,82.6,78.0,29.76,SSE,165,0.0,0.0,86,0.00,,,0.00,Wunderground v.1.15,2013-07-06 22:40:00,
2013-07-06 17:45:00,82.3,77.7,29.76,SSE,165,0.0,0.0,86,0.00,,,0.00,Wunderground v.1.15,2013-07-06 22:45:00,
2013-07-06 17:50:00,82.0,77.4,29.75,SSE,165,0.0,0.0,86,0.00,,,0.00,Wunderground v.1.15,2013-07-06 22:50:00,
2013-07-06 17:56:00,81.8,77.9,29.75,SSE,165,0.0,0.0,88,0.00,,,0.00,Wunderground v.1.15,2013-07-06 22:56:00,
2013-07-06 18:01:00,81.7,77.8,29.75,SSE,165,0.0,0.0,88,0.00,,,0.00,Wunderground v.1.15,2013-07-06 23:01:00,
2013-07-06 18:07:00,81.5,77.6,29.75,SSE,165,0.0,0.0,88,0.00,,,0.00,Wunderground v.1.15,2013-07-06 23:07:00,
2013-07-06 18:12:00,81.5,77.6,29.75,SSE,165,0.0,0.0,88,0.00,,,0.00,Wunderground v.1.15,2013-07-06 23:12:00,
2013-07-06 18:17:00,81.5,77.6,29.75,SSE,165,0.0,0.0,88,0.00,,,0.00,Wunderground v.1.15,2013-07-06 23:17:00,
2013-07-06 18:23:00,81.5,77.6,29.75,SSE,165,0.0,0.0,88,0.00,,,0.00,Wunderground v.1.15,2013-07-06 23:23:00,
2013-07-06 18:28:00,81.6,77.7,29.75,SSE,165,0.0,0.0,88,0.00,,,0.00,Wunderground v.1.15,2013-07-06 23:28:00,
2013-07-06 18:33:00,81.6,77.4,29.75,SSE,165,0.0,0.0,87,0.00,,,0.00,Wunderground v.1.15,2013-07-06 23:33:00,
2013-07-06 18:38:00,81.6,77.0,29.75,SSE,165,0.0,0.0,86,0.00,,,0.00,Wunderground v.1.15,2013-07-06 23:38:00,
2013-07-06 18:44:00,81.7,76.7,29.75,SSE,164,0.0,0.0,85,0.00,,,0.00,Wunderground v.1.15,2013-07-06 23:44:00,
2013-07-06 18:49:00,81.8,73.9,29.75,SSE,164,0.0,2.0,77,0.00,,,0.00,Wunderground v.1.15,2013-07-06 23:49:00,
2013-07-06 18:55:00,82.0,73.7,29.75,SSE,164,0.0,0.0,76,0.00,,,0.00,Wunderground v.1.15,2013-07-06 23:55:00,
2013-07-06 19:00:00,82.3,72.8,29.75,SSE,163,0.0,2.0,73,0.00,,,0.00,Wunderground v.1.15,2013-07-07 00:00:00,
2013-07-06 19:07:00,82.7,73.2,29.75,SSE,163,0.0,0.0,73,0.00,,,0.00,Wunderground v.1.15,2013-07-07 00:07:00,
2013-07-06 19:13:00,82.8,73.3,29.75,SSE,163,0.0,0.0,73,0.00,,,0.00,Wunderground v.1.15,2013-07-07 00:13:00,
2013-07-06 19:18:00,82.9,71.7,29.75,SSE,163,0.0,4.0,69,0.00,,,0.00,Wunderground v.1.15,2013-07-07 00:18:00,
2013-07-06 19:23:00,83.0,71.8,29.75,SSE,163,0.0,0.0,69,0.00,,,0.00,Wunderground v.1.15,2013-07-07 00:23:00,
2013-07-06 19:29:00,83.1,71.9,29.75,South,169,0.0,6.0,69,0.00,,,0.00,Wunderground v.1.15,2013-07-07 00:29:00,
2013-07-06 19:35:00,83.1,71.9,29.75,South,169,0.0,0.0,69,0.00,,,0.00,Wunderground v.1.15,2013-07-07 00:35:00,
2013-07-06 19:40:00,83.0,71.3,29.75,SSE,168,0.0,2.0,68,0.00,,,0.00,Wunderground v.1.15,2013-07-07 00:40:00,
2013-07-06 19:47:00,83.0,71.3,29.75,SSE,168,0.0,0.0,68,0.00,,,0.00,Wunderground v.1.15,2013-07-07 00:47:00,
2013-07-06 19:52:00,83.0,72.2,29.75,SSE,168,0.0,0.0,70,0.00,,,0.00,Wunderground v.1.15,2013-07-07 00:52:00,
2013-07-06 19:58:00,82.9,71.7,29.75,South,174,0.0,4.0,69,0.00,,,0.00,Wunderground v.1.15,2013-07-07 00:58:00,
2013-07-06 20:03:00,82.7,71.1,29.75,South,174,0.0,0.0,68,0.00,,,0.00,Wunderground v.1.15,2013-07-07 01:03:00,
2013-07-06 20:08:00,82.5,71.3,29.75,South,173,0.0,0.0,69,0.00,,,0.00,Wunderground v.1.15,2013-07-07 01:08:00,
2013-07-06 20:13:00,82.3,71.5,29.75,South,173,0.0,0.0,70,0.00,,,0.00,Wunderground v.1.15,2013-07-07 01:13:00,
2013-07-06 20:19:00,82.1,70.5,29.75,South,171,0.0,1.0,68,0.00,,,0.00,Wunderground v.1.15,2013-07-07 01:19:00,
2013-07-06 20:25:00,82.0,72.1,29.75,South,171,0.0,0.0,72,0.00,,,0.00,Wunderground v.1.15,2013-07-07 01:25:00,
2013-07-06 20:30:00,81.7,72.2,29.75,South,171,0.0,0.0,73,0.00,,,0.00,Wunderground v.1.15,2013-07-07 01:30:00,
2013-07-06 20:35:00,81.4,71.9,29.75,South,171,0.0,0.0,73,0.00,,,0.00,Wunderground v.1.15,2013-07-07 01:35:00,
2013-07-06 20:41:00,81.2,71.3,29.75,South,171,0.0,0.0,72,0.00,,,0.00,Wunderground v.1.15,2013-07-07 01:41:00,
2013-07-06 20:46:00,80.9,71.8,29.75,South,171,0.0,0.0,74,0.00,,,0.00,Wunderground v.1.15,2013-07-07 01:46:00,
2013-07-06 20:51:00,80.7,72.4,29.75,South,171,0.0,1.0,76,0.00,,,0.00,Wunderground v.1.15,2013-07-07 01:51:00,
2013-07-06 20:57:00,80.2,72.7,29.75,South,171,0.0,1.0,78,0.00,,,0.00,Wunderground v.1.15,2013-07-07 01:57:00,
2013-07-06 21:02:00,79.7,72.6,29.75,South,171,0.0,1.0,79,0.00,,,0.00,Wunderground v.1.15,2013-07-07 02:02:00,
2013-07-06 21:07:00,79.3,72.2,29.75,South,171,0.0,0.0,79,0.00,,,0.00,Wunderground v.1.15,2013-07-07 02:07:00,
2013-07-06 21:13:00,79.1,70.9,29.75,South,171,0.0,0.0,76,0.00,,,0.00,Wunderground v.1.15,2013-07-07 02:13:00,
2013-07-06 21:19:00,79.2,71.0,29.75,South,171,0.0,4.0,76,0.00,,,0.00,Wunderground v.1.15,2013-07-07 02:19:00,
2013-07-06 21:24:00,79.4,70.8,29.75,South,177,0.0,4.0,75,0.00,,,0.00,Wunderground v.1.15,2013-07-07 02:24:00,
2013-07-06 21:30:00,79.5,70.5,29.75,SSE,155,0.0,4.0,74,0.00,,,0.00,Wunderground v.1.15,2013-07-07 02:30:00,
2013-07-06 21:36:00,79.7,70.7,29.75,South,169,0.0,4.0,74,0.00,,,0.00,Wunderground v.1.15,2013-07-07 02:36:00,
2013-07-06 21:42:00,79.9,70.9,29.75,South,172,2.0,4.0,74,0.00,,,0.00,Wunderground v.1.15,2013-07-07 02:42:00,
2013-07-06 21:47:00,80.0,70.6,29.76,South,170,0.0,4.0,73,0.00,,,0.00,Wunderground v.1.15,2013-07-07 02:47:00,
2013-07-06 21:53:00,80.0,69.7,29.76,SSE,167,0.0,1.0,71,0.00,,,0.00,Wunderground v.1.15,2013-07-07 02:53:00,
2013-07-06 21:59:00,80.4,69.7,29.77,SSE,168,0.0,5.0,70,0.00,,,0.00,Wunderground v.1.15,2013-07-07 02:59:00,
2013-07-06 22:04:00,80.6,70.3,29.77,SSE,161,0.0,5.0,71,0.00,,,0.00,Wunderground v.1.15,2013-07-07 03:04:00,
2013-07-06 22:09:00,80.7,69.6,29.77,SSE,154,0.0,7.0,69,0.00,,,0.00,Wunderground v.1.15,2013-07-07 03:09:00,
2013-07-06 22:15:00,80.9,69.8,29.77,SSE,154,0.0,4.0,69,0.00,,,0.00,Wunderground v.1.15,2013-07-07 03:15:00,
2013-07-06 22:20:00,81.1,69.5,29.77,South,190,0.0,6.0,68,0.00,,,0.00,Wunderground v.1.15,2013-07-07 03:20:00,
2013-07-06 22:25:00,81.1,70.0,29.77,South,190,1.0,2.0,69,0.00,,,0.00,Wunderground v.1.15,2013-07-07 03:25:00,
2013-07-06 22:31:00,81.4,69.8,29.77,SSE,154,0.0,6.0,68,0.00,,,0.00,Wunderground v.1.15,2013-07-07 03:31:00,
2013-07-06 22:36:00,81.6,69.6,29.77,SSW,204,2.0,4.0,67,0.00,,,0.00,Wunderground v.1.15,2013-07-07 03:36:00,
2013-07-06 22:41:00,81.7,69.2,29.77,SSW,209,0.0,4.0,66,0.00,,,0.00,Wunderground v.1.15,2013-07-07 03:41:00,
2013-07-06 22:47:00,81.8,69.3,29.77,South,190,0.0,4.0,66,0.00,,,0.00,Wunderground v.1.15,2013-07-07 03:47:00,
2013-07-06 22:52:00,81.9,69.9,29.77,South,188,0.0,1.0,67,0.00,,,0.00,Wunderground v.1.15,2013-07-07 03:52:00,
2013-07-06 22:58:00,81.9,69.4,29.78,SSE,165,0.0,8.0,66,0.00,,,0.00,Wunderground v.1.15,2013-07-07 03:58:00,
2013-07-06 23:01:00,81.9,69.4,29.77,SSE,165,0.0,8.0,66,0.00,,,0.00,Wunderground v.1.15,2013-07-07 04:01:00,
2013-07-06 23:02:00,81.9,69.4,29.77,SSE,165,0.0,8.0,66,0.00,,,0.00,Wunderground v.1.15,2013-07-07 04:02:00,
2013-07-06 23:03:00,81.9,69.4,29.77,SSE,165,2.0,2.0,66,0.00,,,0.00,Wunderground v.1.15,2013-07-07 04:03:00,
2013-07-06 23:08:00,81.8,69.8,29.78,SSW,197,0.0,5.0,67,0.00,,,0.00,Wunderground v.1.15,2013-07-07 04:08:00,
2013-07-06 23:13:00,81.7,69.7,29.78,South,182,0.0,1.0,67,0.00,,,0.00,Wunderground v.1.15,2013-07-07 04:13:00,
2013-07-06 23:18:00,81.6,69.6,29.78,South,182,0.0,3.0,67,0.00,,,0.00,Wunderground v.1.15,2013-07-07 04:18:00,
2013-07-06 23:24:00,81.5,69.5,29.78,SSE,156,4.0,4.0,67,0.00,,,0.00,Wunderground v.1.15,2013-07-07 04:24:00,
2013-07-06 23:29:00,81.5,69.5,29.77,South,182,0.0,5.0,67,0.00,,,0.00,Wunderground v.1.15,2013-07-07 04:29:00,
2013-07-06 23:34:00,81.5,69.5,29.77,South,178,0.0,5.0,67,0.00,,,0.00,Wunderground v.1.15,2013-07-07 04:34:00,
2013-07-06 23:39:00,81.5,69.5,29.77,SE,136,4.0,5.0,67,0.00,,,0.00,Wunderground v.1.15,2013-07-07 04:39:00,
2013-07-06 23:44:00,81.6,69.6,29.78,South,183,0.0,3.0,67,0.00,,,0.00,Wunderground v.1.15,2013-07-07 04:44:00,
2013-07-06 23:49:00,81.6,69.6,29.77,SSE,159,0.0,7.0,67,0.00,,,0.00,Wunderground v.1.15,2013-07-07 04:49:00,
2013-07-06 23:54:00,81.5,69.5,29.78,SSE,148,0.0,7.0,67,0.00,,,0.00,Wunderground v.1.15,2013-07-07 04:54:00,